Regional Weather Roundup
Issued by NWS

Home | Current Version | Previous Version | Text Only | Print | Product List | Glossary On
Versions: 1 2 3 4 5 6 7 8 9 10 11 12 13 14 15 16 17 18 19 20 21 22 23 24 25 26 27 28 29 30 31 32 33 34 35 36 37 38 39 40 41 42 43 44 45 46 47 48 49 50
000
ASUS43 KDTX 310610
RWRMI
MICHIGAN HOURLY REGIONAL WEATHER ROUNDUP
NATIONAL WEATHER SERVICE DETROIT/PONTIAC MI
200 AM EDT SAT JUL 31 2021

NOTE: "FAIR" INDICATES FEW OR NO CLOUDS BELOW 12,000 FEET WITH NO
SIGNIFICANT WEATHER AND/OR OBSTRUCTION TO VISIBILITY.

MIZ047>049-052>055-059>063-066>070-074>076-081>083-310700-
SOUTHEAST LOWER MICHIGAN

CITY           SKY/WX    TMP DP  RH WIND       PRES   REMARKS
ADRIAN         MOCLDY    60  57  89 NE5       30.08F
6HR MIN TEMP:  60; 6HR MAX TEMP:  70;

ANN ARBOR      PTCLDY    53  52  96 CALM      30.07F
DETROIT CITY   PTCLDY    62  52  69 CALM      30.07F
6HR MIN TEMP:  61; 6HR MAX TEMP:  68;

DETROIT        PTCLDY    61  52  72 S5        30.08F
6HR MIN TEMP:  60; 6HR MAX TEMP:  70;

FLINT          CLEAR     57  55  93 CALM      30.07F
6HR MIN TEMP:  55; 6HR MAX TEMP:  70;


CITY           SKY/WX    TMP DP  RH WIND       PRES   REMARKS
JACKSON        PTCLDY    60  56  86 CALM      30.08F
6HR MIN TEMP:  58; 6HR MAX TEMP:  72;

LANSING        CLEAR     59  53  80 N3        30.08F
6HR MIN TEMP:  57; 6HR MAX TEMP:  70;

LAPEER         NOT AVBL
MT. CLEMENS    CLEAR     56  56 100 CALM      30.06F
6HR MIN TEMP:  56; 6HR MAX TEMP:  65;

PONTIAC        CLEAR     57  53  86 CALM      30.06F
6HR MIN TEMP:  57; 6HR MAX TEMP:  68;

PORT HOPE        N/A     56  50  80 SW7       30.06F
6HR MIN TEMP:  54; 6HR MAX TEMP:  64;

TRI CITIES     CLEAR     57  52  83 N5        30.07F
6HR MIN TEMP:  57; 6HR MAX TEMP:  69;

MIDLAND        NOT AVBL
$$
MIZ043>046-050>051-056>058-064>065-071>073-077>080-310700-
SOUTHWEST LOWER MICHIGAN

CITY           SKY/WX    TMP DP  RH WIND       PRES   REMARKS
BATTLE CREEK   PTCLDY    61  56  83 NW5       30.08F
6HR MIN TEMP:  60; 6HR MAX TEMP:  71;

BENTON HARBOR  PTCLDY    57  54  89 CALM      30.08F
6HR MIN TEMP:  56; 6HR MAX TEMP:  67;

HOLLAND        CLEAR     58  50  75 CALM      30.10S
6HR MIN TEMP:  56; 6HR MAX TEMP:  68;

GRAND RAPIDS   CLEAR     59  53  80 N3        30.09F
6HR MIN TEMP:  59; 6HR MAX TEMP:  71;

KALAMAZOO      PTCLDY    60  54  80 N6        30.08F
6HR MIN TEMP:  60; 6HR MAX TEMP:  70;

MUSKEGON       CLEAR     56  49  77 N5        30.09F
6HR MIN TEMP:  55; 6HR MAX TEMP:  68;

$$
MIZ016>042-310700-
NORTHERN LOWER MICHIGAN

CITY           SKY/WX    TMP DP  RH WIND       PRES   REMARKS
ALPENA         MOCLDY    51  48  89 S3        30.06F
6HR MIN TEMP:  51; 6HR MAX TEMP:  65;

GAYLORD        PTCLDY    53  45  74 W3        30.07F
6HR MIN TEMP:  51; 6HR MAX TEMP:  63;

GRAYLING       CLEAR     47  46  97 CALM      30.06F
6HR MIN TEMP:  46; 6HR MAX TEMP:  63;

HOUGHTON LAKE  CLEAR     49  45  86 E5        30.08F
6HR MIN TEMP:  48; 6HR MAX TEMP:  65;

MANISTEE       CLEAR     50  50 100 E3        30.07F
PELLSTON       MOCLDY    53  51  93 CALM      30.05F
6HR MIN TEMP:  50; 6HR MAX TEMP:  65;

TRAVERSE CITY  CLEAR     55  50  83 CALM      30.06F
6HR MIN TEMP:  54; 6HR MAX TEMP:  66;

$$
MIZ007>008-015-310700-
EASTERN UPPER MICHIGAN

CITY           SKY/WX    TMP DP  RH WIND       PRES   REMARKS
KINROSS        CLOUDY    56  48  74 CALM      30.04F
6HR MIN TEMP:  54; 6HR MAX TEMP:  61;

S. S. MARIE    CLOUDY    59  47  64 CALM      30.03F
6HR MIN TEMP:  58; 6HR MAX TEMP:  61;

MUNISING         N/A     61  53  75 S10       29.98F
6HR MIN TEMP:  58; 6HR MAX TEMP:  65;

$$
MIZ004>006-011>014-085-310700-
CENTRAL UPPER MICHIGAN

CITY           SKY/WX    TMP DP  RH WIND       PRES   REMARKS
ESCANABA       PTCLDY    63  57  81 SW8       30.01F
6HR MIN TEMP:  59; 6HR MAX TEMP:  66;

MENOMINEE      MOCLDY    63  58  83 SW5       30.04F
6HR MIN TEMP:  61; 6HR MAX TEMP:  67;

$$
MIZ001>003-009>011-084-310700-
WESTERN UPPER MICHIGAN

CITY           SKY/WX    TMP DP  RH WIND       PRES   REMARKS
IRON MOUNTAIN  PTCLDY    60  55  83 CALM      30.01F
6HR MIN TEMP:  59; 6HR MAX TEMP:  72;

HOUGHTON       PTCLDY    66  57  72 W9        29.94F
6HR MIN TEMP:  56; 6HR MAX TEMP:  69; 6HR PCP: TRACE;

COPPER HARBOR    N/A     64  56  75 VRB7G18   29.90F
6HR MIN TEMP:  61; 6HR MAX TEMP:  64;

IRONWOOD       PTCLDY    65  58  78 SW9       30.01F
6HR MIN TEMP:  65; 6HR MAX TEMP:  73;

$$

ABBREVIATIONS USED IN REMARKS
   TC - TEMPERATURE IN CELSIUS
  WCI - WIND CHILL INDEX
   HX - HEAT INDEX
  VSB - VISIBILITY




USA.gov is the U.S. government's official web portal to all federal, state and local government web resources and services.